Weather History for New Orleans NAS, LA

Change the Weather History Date:

Wednesday, January 2, 2013

  Actual Average Record
Temperature  
Mean Temperature 50 °F -  
Max Temperature 55 °F 60 °F 78 °F (2009)
Min Temperature 44 °F 44 °F 26 °F (2001)
Degree Days  
Heating Degree Days 15    
Moisture  
Dew Point 42 °F    
Average Humidity 77    
Maximum Humidity 85    
Minimum Humidity 68    
Precipitation  
Precipitation 0.00 in - - ()
Sea Level Pressure  
Sea Level Pressure 30.13 in    
Wind  
Wind Speed 8 mph (North)    
Max Wind Speed 10 mph    
Max Gust Speed 20 mph    
Visibility 8 miles    
Events Rain    
Averages and records for this station are not official NWS values.
T = Trace of Precipitation, MM = Missing Value Source: NWS Daily Summary

Daily Weather History Graph

Daily Weather History Graph

Search for Another Location

Airport:

Trip Planner

Search our weather history database for the weather conditions in past years. The results will help you decide how hot, cold, wet, or windy it might be!

Date:

Astronomy

Jan. 02, 2013 Rise Set
Actual Time 6:55 AM CST 5:12 PM CST
Civil Twilight 6:29 AM CST 5:39 PM CST
Nautical Twilight 6:00 AM CST 6:08 PM CST
Astronomical Twilight 5:30 AM CST 6:37 PM CST
Moon 10:19 PM CST (1/2) 10:01 AM CST (1/2)
Length of Visible Light 11h 09m
Length of Day
10h 16m
Waning Gibbous, 75% of the Moon is Illuminated
Jan 2
Waning Gibbous
Jan 4
Last Quarter
Jan 11
New
Jan 18
First Quarter
Jan 26
Full

Hourly Weather History & Observations

Time (CST) Temp. Windchill Dew Point Humidity Pressure Visibility Wind Dir Wind Speed Gust Speed Precip Events Conditions
12:12 AM 55.4 °F - 48.2 °F 77% - 10.0 mi Variable 6.9 mph 16.1 mph N/A   Overcast
1:55 AM 53.1 °F - 46.9 °F 80% - 10.0 mi North 10.4 mph 19.6 mph N/A   Overcast
2:55 AM 52.0 °F - 46.0 °F 80% - 10.0 mi North 8.1 mph 17.3 mph N/A   Overcast
3:55 AM 51.1 °F - 45.0 °F 80% - 10.0 mi North 10.4 mph 18.4 mph N/A   Overcast
4:55 AM 51.1 °F - 45.0 °F 80% - 10.0 mi North 6.9 mph - N/A   Overcast
5:03 AM 51.8 °F - 44.6 °F 76% - 10.0 mi North 6.9 mph - N/A   Overcast
5:55 AM 50.0 °F - 44.1 °F 80% - 10.0 mi North 9.2 mph - N/A   Overcast
6:11 AM 50.0 °F - 44.6 °F 82% 30.09 in 7.0 mi NNW 9.2 mph 17.3 mph N/A   Overcast
6:55 AM 50.0 °F - 43.0 °F 77% 30.09 in 7.0 mi North 9.2 mph 16.1 mph N/A   Overcast
7:55 AM 48.9 °F - 43.0 °F 80% 30.13 in 7.0 mi North 9.2 mph - N/A   Overcast
8:55 AM 48.9 °F - 43.0 °F 80% 30.14 in 7.0 mi North 9.2 mph - N/A Rain Light Rain
9:55 AM 48.9 °F - 42.1 °F 77% 30.15 in 5.0 mi North 9.2 mph - N/A Rain Light Rain
10:55 AM 48.9 °F - 41.0 °F 74% 30.14 in 6.0 mi North 6.9 mph 17.3 mph N/A Rain Light Rain
11:55 AM 50.0 °F - 41.0 °F 71% 30.14 in 5.0 mi North 6.9 mph 16.1 mph N/A Rain Light Rain
12:06 PM 51.8 °F - 42.8 °F 71% 30.11 in 7.0 mi NE 9.2 mph - N/A   Overcast
12:55 PM 50.0 °F - 41.0 °F 71% 30.11 in 7.0 mi North 10.4 mph - N/A   Overcast
1:13 PM 50.0 °F - 41.0 °F 71% 30.10 in 7.0 mi North 8.1 mph - N/A   Overcast
1:55 PM 50.0 °F - 41.0 °F 71% 30.10 in 7.0 mi North 8.1 mph - N/A   Overcast
2:55 PM 50.0 °F - 41.0 °F 71% 30.12 in 7.0 mi Variable 4.6 mph - N/A   Overcast
3:55 PM 50.0 °F - 39.9 °F 68% 30.13 in 7.0 mi Variable 4.6 mph - N/A   Overcast
4:55 PM 48.9 °F - 41.0 °F 74% 30.12 in 7.0 mi North 8.1 mph - N/A   Overcast
5:55 PM 48.0 °F - 42.1 °F 80% 30.13 in 8.0 mi North 9.2 mph 17.3 mph N/A   Overcast
6:16 PM 48.2 °F - 42.8 °F 82% 30.14 in 7.0 mi North 9.2 mph 16.1 mph N/A   Overcast
6:55 PM 48.0 °F - 39.9 °F 74% 30.14 in 7.0 mi North 10.4 mph 19.6 mph N/A   Overcast
7:54 PM 46.9 °F - 39.9 °F 77% 30.18 in 8.0 mi North 6.9 mph - N/A   Overcast
8:55 PM 46.9 °F - 41.0 °F 80% 30.17 in 7.0 mi North 9.2 mph - N/A   Overcast
9:55 PM 45.0 °F 40.1 °F 39.9 °F 82% 30.18 in 8.0 mi North 9.2 mph - N/A Rain Light Rain
10:55 PM 45.0 °F 41.2 °F 39.9 °F 82% 30.21 in 7.0 mi North 6.9 mph - N/A Rain Light Rain
11:55 PM 44.1 °F 40.8 °F 39.9 °F 85% - 5.0 mi North 5.8 mph - N/A Rain Rain